Wind_Speed
16 16 17 16 15 15 15 16 17 17 17 17 17 17 17 17 16 16 16 17 17 17 16 16 17 18 20 20 20 20 20 21 22 22 22 22 21 19 18 18 19 20
16 16 17 17 17 16 15 15 17 17 17 16 16 17 19 19 18 17 17 18 18 17 18 18 18 18 20 20 19 20 21 22 24 22 22 22 23 23 21 19 19 22
18 18 18 18 18 17 16 16 18 18 17 17 17 17 18 19 19 19 19 19 19 18 18 19 19 18 19 20 20 20 20 21 23 23 22 22 23 25 25 22 21 23
18 18 18 19 18 17 18 19 19 19 18 17 18 18 18 18 18 19 20 20 20 20 20 20 19 19 19 20 20 19 20 21 21 22 23 23 24 27 28 25 23 24
19 18 19 18 17 18 20 20 19 19 19 19 20 20 21 19 17 18 19 19 21 23 24 22 19 19 20 20 20 19 19 21 22 22 23 22 23 26 28 26 24 25
21 19 19 17 17 19 20 19 19 18 19 20 21 21 22 20 18 19 18 16 19 22 24 24 21 20 21 21 20 20 19 21 22 22 21 21 22 24 25 26 26 25
22 20 19 18 18 18 18 19 21 20 17 18 21 22 22 21 21 22 20 17 19 21 23 25 24 21 22 22 20 19 19 20 21 21 20 21 22 23 23 24 26 25
22 21 19 19 18 18 18 19 21 21 19 18 20 21 22 22 22 23 23 22 22 21 21 24 25 24 23 22 21 20 19 19 19 19 20 22 22 21 22 22 23 22
23 22 20 20 20 19 20 19 20 22 21 20 20 21 21 22 23 24 25 25 24 23 22 22 24 26 25 24 24 22 20 18 18 18 20 23 22 20 21 22 22 21
23 22 21 21 22 21 21 21 21 22 21 21 22 23 22 22 24 24 24 24 24 24 25 25 22 24 26 25 23 22 18 17 19 20 19 20 21 20 19 20 20 21
22 20 20 21 21 20 20 20 20 20 20 22 23 23 23 23 24 24 22 22 22 23 26 28 25 23 23 23 24 25 22 19 21 22 20 18 20 21 21 20 21 22
21 18 20 21 19 20 22 21 20 19 21 22 22 23 25 24 24 24 22 22 24 24 25 27 27 23 20 22 26 25 22 20 21 22 21 19 19 20 21 21 21 23
20 16 19 21 20 21 23 23 22 23 23 23 23 24 25 25 24 25 25 24 25 25 24 25 25 21 18 21 24 21 20 21 21 21 21 20 19 19 19 21 21 23
20 17 19 21 21 21 21 23 24 25 24 24 25 25 24 24 24 25 26 26 25 25 24 24 23 20 19 21 21 20 20 20 19 20 21 20 20 19 18 20 21 21
21 19 20 21 21 21 21 22 24 24 24 25 25 24 23 23 24 25 26 26 26 26 26 25 23 21 21 20 19 20 20 20 20 20 19 19 20 19 18 20 19 18
21 21 22 21 20 21 22 23 23 23 24 24 23 23 23 24 24 25 25 25 26 26 25 25 23 21 20 18 18 20 20 20 21 20 18 18 20 19 18 19 18 16
20 22 22 20 21 22 22 23 23 23 23 23 22 23 24 24 24 24 24 24 25 25 24 24 22 21 20 18 19 21 20 21 23 21 18 17 18 18 18 18 18 16
20 21 21 20 21 21 22 23 24 24 24 23 24 24 23 24 24 24 24 24 24 24 24 23 22 21 20 19 19 21 21 22 24 21 18 17 18 18 18 19 18 17
21 20 20 20 20 20 22 24 24 24 25 25 25 24 23 24 25 24 25 24 24 25 24 22 23 23 21 19 19 20 21 23 24 21 16 17 18 18 18 19 19 17
21 20 21 21 21 21 22 22 22 23 24 25 25 24 24 25 25 25 25 24 24 25 24 23 23 22 21 20 19 19 20 23 24 21 17 18 19 18 17 18 18 17
20 20 20 20 20 21 21 21 22 23 24 24 23 24 24 24 25 26 25 23 24 25 25 25 24 23 22 21 19 19 21 23 24 22 20 19 20 20 18 16 16 16
19 19 19 19 19 20 21 22 23 24 24 23 23 23 24 24 25 26 24 23 25 25 25 25 24 21 20 18 18 19 22 24 24 23 21 20 19 19 18 16 15 16
18 18 19 19 19 20 21 22 23 23 23 24 23 24 24 24 24 24 24 25 25 25 25 25 21 19 20 20 18 19 22 25 24 21 20 19 19 19 17 15 16 15
17 18 19 19 20 20 21 21 22 21 21 23 24 24 24 23 22 23 24 25 25 25 24 22 19 19 21 19 17 18 22 24 21 18 18 18 19 21 19 16 16 16
16 16 17 19 20 21 21 21 22 21 20 21 23 24 23 22 22 23 24 24 25 24 22 22 20 19 17 15 16 19 22 22 19 15 16 18 19 22 21 18 17 17
17 15 15 17 19 21 22 22 23 22 22 21 21 21 22 23 23 23 22 23 24 22 21 21 18 14 13 13 15 18 21 21 19 15 16 18 20 20 20 19 18 17
Wind_Direction
2 359 355 350 351 349 348 350 346 342 344 344 344 344 342 339 336 333 331 328 325 321 317 314 309 304 302 301 295 291 289 287 285 284 281 274 268 264 261 264 272 273
357 353 350 347 345 343 344 348 344 339 339 341 343 343 341 338 335 334 330 326 325 321 318 316 310 305 305 306 301 293 289 282 278 278 280 279 274 270 261 255 260 268
353 348 348 346 342 340 343 346 341 336 336 339 340 340 338 336 334 333 331 327 323 320 320 319 313 306 301 299 298 298 297 288 278 274 276 278 276 271 265 256 249 253
348 346 345 343 339 341 345 345 339 334 336 338 336 335 332 330 331 331 330 329 328 326 322 317 313 309 303 293 289 295 300 295 287 280 278 278 276 271 264 259 249 242
345 344 342 339 339 344 344 340 336 336 338 337 334 332 326 323 328 328 325 330 333 330 323 317 313 312 306 295 291 293 292 291 291 286 278 274 271 267 261 256 254 246
343 342 341 340 342 344 341 337 335 333 334 335 331 327 322 322 325 320 316 325 332 328 323 320 316 315 311 302 299 298 289 284 288 286 279 274 269 267 264 258 257 253
342 341 340 340 342 344 342 339 332 324 327 335 331 326 326 326 325 321 320 328 332 326 324 322 319 317 315 309 304 299 291 286 287 287 285 283 278 274 272 264 257 254
343 341 338 338 342 344 338 332 329 328 333 337 330 328 330 329 329 331 332 336 333 324 321 323 322 320 318 314 309 300 293 291 290 290 290 289 287 281 277 271 261 256
343 339 338 339 342 339 332 332 338 339 338 334 330 331 332 332 334 336 335 334 329 322 319 319 320 322 321 318 314 305 295 291 293 298 300 298 295 289 282 276 269 262
343 340 340 339 336 334 334 340 344 340 336 336 333 331 333 336 336 332 329 326 322 321 321 317 317 322 322 322 323 321 315 310 309 311 312 311 305 298 288 280 276 271
339 337 336 330 327 331 335 338 338 335 336 335 330 329 331 332 328 323 320 322 323 323 322 320 321 324 324 326 331 331 330 329 324 318 316 316 312 305 294 286 282 277
327 331 335 329 331 338 338 336 336 336 334 330 329 331 330 328 327 327 329 332 330 327 324 322 322 322 323 327 331 330 329 333 332 323 314 309 310 307 300 295 289 280
325 336 344 338 338 342 340 338 339 338 335 334 336 335 329 328 332 335 336 335 330 326 324 320 318 321 327 332 336 338 333 333 334 326 315 306 304 302 297 296 291 284
331 344 351 343 339 340 339 340 339 336 337 339 337 332 330 333 337 337 334 330 328 327 326 323 324 329 333 334 338 341 336 334 332 324 317 312 307 301 295 295 291 286
337 349 352 342 336 338 339 339 336 334 337 337 332 331 334 338 338 335 329 327 327 329 328 328 328 329 329 330 334 336 335 335 330 324 318 312 307 304 299 298 294 286
345 350 344 336 336 340 340 336 333 334 334 332 333 337 338 337 334 330 327 326 326 325 324 324 326 327 327 330 335 336 335 334 331 326 320 313 309 306 303 302 295 279
348 345 336 336 342 341 336 334 334 335 333 332 337 338 335 333 331 328 326 325 323 322 321 321 323 326 325 328 335 336 334 334 333 330 321 314 310 305 303 302 292 273
345 338 333 338 344 342 341 342 341 337 335 337 338 335 332 331 328 325 324 323 322 320 319 320 322 323 323 327 332 331 331 334 335 332 322 313 311 307 304 302 292 273
340 337 335 339 342 344 346 344 339 336 336 337 335 331 331 328 324 322 322 321 321 319 318 320 322 322 323 325 326 325 326 330 334 333 322 312 312 311 308 305 297 279
339 342 341 341 343 344 342 338 333 333 334 332 330 328 327 324 322 321 319 320 322 322 321 323 323 323 323 321 319 320 321 325 331 330 318 309 309 311 313 312 303 283
339 341 339 339 341 341 340 338 336 335 332 329 328 325 323 322 321 320 319 322 326 326 326 326 325 325 326 320 316 320 323 327 331 327 317 310 308 306 308 315 312 290
340 340 339 340 340 338 337 337 336 334 330 327 325 322 320 321 321 319 320 324 326 326 326 326 327 329 332 329 324 325 328 332 333 328 319 313 310 309 306 309 316 307
341 343 344 344 343 340 337 335 332 330 328 326 324 321 318 318 319 320 323 326 325 324 326 329 333 337 337 334 331 332 336 338 338 330 320 314 313 317 319 315 316 317
338 340 339 338 338 334 331 330 327 324 323 323 322 319 315 316 320 323 324 324 322 322 328 333 336 337 335 334 339 345 348 348 344 333 324 321 319 321 327 328 322 319
332 334 335 336 334 329 326 325 321 318 319 320 319 316 314 317 321 320 320 321 320 324 331 335 335 337 337 339 347 353 355 356 353 340 331 330 326 323 325 328 325 321
330 330 330 329 325 321 319 319 318 318 319 317 315 315 316 317 318 315 316 321 323 326 332 334 336 345 348 345 350 356 358 358 356 348 340 336 331 326 323 323 327 329
Height
833 832 831 830 829 828 827 826 825 824 822 821 820 819 818 817 816 815 814 813 812 811 810 809 808 807 806 805 804 803 803 802 802 802 803 802 802 801 800 800 802 803
833 832 831 830 829 828 827 826 825 824 823 822 821 819 818 817 816 815 814 813 811 811 810 809 807 806 805 803 803 802 801 801 800 800 800 800 800 800 799 798 799 801
834 833 831 830 829 828 827 826 825 824 823 822 821 820 819 817 816 815 814 812 811 810 808 807 806 805 804 802 801 800 800 799 798 798 798 797 797 798 798 796 796 798
834 833 832 831 830 828 827 826 825 824 823 822 821 820 819 817 816 815 813 812 810 809 808 806 805 804 803 801 800 799 799 798 797 796 795 794 794 795 796 796 794 794
834 833 832 831 830 828 828 826 825 824 822 822 820 819 818 817 816 814 813 812 810 809 807 805 804 803 802 800 799 799 799 798 797 795 793 792 792 793 794 794 792 791
834 833 832 831 830 829 828 826 825 824 822 821 820 819 817 816 815 813 812 811 810 809 807 805 803 802 801 799 798 798 797 796 795 794 793 791 791 791 791 791 790 788
833 832 831 830 829 828 828 826 825 823 821 820 819 818 816 815 814 812 811 810 809 808 807 805 803 801 800 798 797 796 795 794 793 792 791 790 789 789 788 788 787 786
833 832 831 830 829 828 827 825 824 822 821 820 818 817 815 814 813 811 810 809 808 807 806 804 802 800 799 798 796 795 793 792 792 790 788 787 787 788 787 785 784 784
833 832 831 829 828 827 826 824 823 822 820 819 817 816 815 814 812 811 810 809 807 806 805 803 802 800 798 797 795 794 792 792 791 788 786 785 785 785 784 783 782 781
833 831 830 829 827 826 824 823 822 821 820 819 817 816 814 813 812 811 810 808 807 805 804 802 800 799 798 796 794 793 792 793 792 788 785 784 783 782 781 781 780 779
832 831 829 828 826 825 823 822 821 820 819 818 816 815 813 812 811 810 808 807 806 804 803 801 799 798 797 795 794 792 791 791 790 787 784 782 781 780 779 778 777 776
831 829 828 827 825 824 823 821 820 819 818 817 815 814 813 811 810 808 807 806 805 804 802 800 798 797 795 794 793 791 789 788 787 785 784 782 780 779 777 776 774 773
829 828 827 826 825 824 822 821 820 819 817 816 815 813 812 810 809 807 806 805 804 803 801 800 798 796 794 793 792 790 788 787 785 784 783 781 779 777 776 775 773 771
829 828 826 826 825 823 822 821 820 819 817 816 814 813 812 810 808 807 806 805 804 802 800 799 797 795 793 792 791 789 787 786 784 783 781 779 777 776 774 773 771 770
828 827 826 826 825 823 822 821 820 819 817 815 814 813 811 810 808 807 806 805 803 801 799 798 796 795 793 792 790 788 786 785 783 781 779 777 776 774 772 771 769 768
828 827 826 826 825 823 822 821 820 819 817 815 814 813 811 809 808 807 806 804 802 800 799 797 796 794 793 791 789 787 786 784 782 779 777 775 774 772 771 769 768 767
828 827 827 825 824 823 822 821 820 818 817 816 814 812 811 809 808 807 805 804 802 799 798 796 794 793 792 790 789 787 785 783 781 778 776 774 773 771 769 768 767 766
828 827 826 825 824 823 823 821 820 819 817 816 814 812 811 809 807 806 804 803 801 798 796 795 793 792 790 789 787 786 784 782 780 778 775 774 772 770 768 766 765 765
828 827 826 825 824 824 823 821 820 819 817 816 814 812 810 808 807 805 803 801 799 797 795 793 792 790 789 787 786 784 783 781 779 777 774 772 771 769 767 765 764 764
828 827 826 826 825 824 823 821 820 819 817 816 814 812 810 808 806 804 802 800 798 796 794 792 790 789 787 786 784 783 781 779 777 775 773 771 769 767 766 764 763 762
828 827 827 826 825 824 823 821 820 819 817 815 813 812 810 808 806 803 801 799 797 795 793 791 789 788 786 785 783 781 780 778 776 774 772 770 768 765 764 763 762 761
828 827 827 826 825 824 822 821 820 818 817 815 813 811 809 807 805 802 800 798 796 794 792 790 788 787 785 784 782 780 778 776 774 772 770 768 766 764 763 762 760 759
828 827 826 826 825 823 822 821 819 818 816 814 812 810 808 806 804 802 800 797 795 793 792 790 788 786 784 783 781 779 777 775 773 771 769 767 765 763 762 760 759 758
827 827 826 825 824 823 821 820 818 817 815 813 811 809 807 805 803 801 799 797 795 793 791 789 787 785 784 782 780 779 776 774 772 770 768 766 764 762 761 759 758 756
826 825 825 824 823 822 821 819 817 815 813 812 810 808 806 804 802 800 798 796 794 792 790 789 787 784 784 782 780 778 776 774 772 770 768 766 764 761 760 758 756 755
825 824 824 823 823 821 820 818 816 814 812 810 808 807 804 802 800 798 796 794 793 791 789 787 785 784 784 781 779 778 776 774 773 771 769 766 764 761 759 757 756 754